This demonstration page uses our WeatherBlox Daily Observations layout. Learn more.

Left ArrowRight Arrow

44.8408, -93.29828

Hourly Observations for March 14, 2017

Temp ( °F °C ) Dew Point ( °F °C ) Humidity (%) Winds ( mph kmh ) Pressure ( in mb ) Visibility ( mi km ) Precip ( " mm )
12:53 am 00:53 Clear 16 -8.9 0 -17.8 49 49 ENE 6 9 30.47 1032 10 16 0.00 0.00
1:53 am 01:53 Clear 14 -10 0 -17.8 53 53 ENE 5 7 30.48 1032 10 16 0.00 0.00
2:53 am 02:53 Clear 13 -10.6 0 -17.8 56 56 NE 3 6 30.49 1032 10 16 0.00 0.00
3:53 am 03:53 Clear 11 -11.7 1 -17.2 64 64 NE 5 7 30.48 1032 10 16 0.00 0.00
4:53 am 04:53 Clear 11 -11.7 1 -17.2 64 64 NE 6 9 30.48 1032 10 16 0.00 0.00
5:53 am 05:53 Clear 10 -12.2 1 -17.2 67 67 NE 7 11 30.50 1033 10 16 0.00 0.00
6:53 am 06:53 Mostly Clear 11 -11.7 2 -16.7 67 67 NE 6 9 30.52 1034 10 16 0.00 0.00
7:53 am 07:53 Mostly Sunny 12 -11.1 2 -16.7 64 64 Calm 30.55 1034 10 16 0.00 0.00
8:53 am 08:53 Mostly Sunny 14 -10 4 -15.6 64 64 VRB 5 7 30.56 1035 10 16 0.00 0.00
9:53 am 09:53 Sunny 17 -8.3 4 -15.6 56 56 E 7 11 30.56 1035 10 16 0.00 0.00
10:53 am 10:53 Sunny 20 -6.7 3 -16.1 48 48 E 6 9 30.57 1035 10 16 0.00 0.00
11:53 am 11:53 Sunny 21 -6.1 2 -16.7 43 43 E 9 15 30.57 1035 10 16 0.00 0.00
12:53 pm 12:53 Sunny 24 -4.4 2 -16.7 38 38 E 9 15 30.56 1035 10 16 0.00 0.00
1:53 pm 13:53 Sunny 26 -3.3 3 -16.1 37 37 VRB 5 7 30.55 1035 10 16 0.00 0.00
2:53 pm 14:53 Sunny 28 -2.2 3 -16.1 34 34 NW 5 7 30.53 1034 10 16 0.00 0.00
3:53 pm 15:53 Mostly Sunny 28 -2.2 3 -16.1 34 34 WNW 8 13 30.52 1033 10 16 0.00 0.00
4:53 pm 16:53 Mostly Sunny 29 -1.7 2 -16.7 31 31 VRB 5 7 30.51 1033 10 16 0.00 0.00
5:53 pm 17:53 Mostly Sunny 28 -2.2 3 -16.1 34 34 N 8 13 30.51 1033 10 16 0.00 0.00
6:53 pm 18:53 Mostly Sunny 26 -3.3 4 -15.6 38 38 NW 8 13 30.50 1033 10 16 0.00 0.00
7:53 pm 19:53 Clear 23 -5 5 -15 46 46 WNW 6 9 30.51 1033 10 16 0.00 0.00
8:53 pm 20:53 Clear 21 -6.1 5 -15 50 50 WNW 8 13 30.51 1033 10 16 0.00 0.00
9:53 pm 21:53 Clear 20 -6.7 5 -15 52 52 WNW 8 13 30.50 1033 10 16 0.00 0.00
10:53 pm 22:53 Clear 19 -7.2 5 -15 54 54 WNW 6 9 30.50 1033 10 16 0.00 0.00
11:53 pm 23:53 Clear 19 -7.2 5 -15 54 54 WNW 5 7 30.50 1033 10 16 0.00 0.00

Powered by AerisWeather